This is the latest recevied weather packets stored in our database for station/object K7D3. If no packets are shown the sender has not sent any weather packets the latest 10 day(s).
| Time | Temp. | Humidity | Pressure | Rain* | Wind** | Luminosity | Snow |
|---|---|---|---|---|---|---|---|
| 1777245179 | 18.89° C | 42% | - | 0 mm | 5.36 m/s, 162° | - | - |
| 1777244697 | 18.89° C | 42% | - | 0 mm | 5.81 m/s, 160° | - | - |
| 1777244218 | 19.44° C | 40% | - | 0 mm | 5.81 m/s, 165° | - | - |
| 1777243740 | 19.44° C | 41% | - | 0 mm | 5.36 m/s, 156° | - | - |
| 1777243258 | 19.44° C | 40% | - | 0 mm | 6.26 m/s, 170° | - | - |
| 1777242775 | 19.44° C | 40% | - | 0 mm | 5.81 m/s, 186° | - | - |
| 1777242297 | 20° C | 38% | - | 0 mm | 7.15 m/s, 138° | - | - |
| 1777241815 | 19.44° C | 37% | - | 0 mm | 6.26 m/s, 172° | - | - |
| 1777241337 | 20° C | 38% | - | 0 mm | 6.26 m/s, 139° | - | - |
| 1777240858 | 19.44° C | 38% | - | 0 mm | 5.36 m/s, 195° | - | - |
| 1777240376 | 20° C | 40% | - | 0 mm | 5.81 m/s, 179° | - | - |
| 1777239898 | 20° C | 39% | - | 0 mm | 6.26 m/s, 156° | - | - |
| 1777239419 | 20° C | 38% | - | 0 mm | 3.13 m/s, 174° | - | - |
| 1777238937 | 20° C | 39% | - | 0 mm | 4.92 m/s, 195° | - | - |
| 1777238459 | 20.56° C | 39% | - | 0 mm | 3.13 m/s, 188° | - | - |
| 1777237980 | 20.56° C | 38% | - | 0 mm | 4.02 m/s, 152° | - | - |
| 1777237498 | 20° C | 39% | - | 0 mm | 5.36 m/s, 221° | - | - |
| 1777237019 | 20° C | 37% | - | 0 mm | 5.36 m/s, 169° | - | - |
| 1777236541 | 20° C | 39% | - | 0 mm | 4.02 m/s, 186° | - | - |
| 1777236058 | 20° C | 39% | - | 0 mm | 3.13 m/s, 180° | - | - |
| 1777235579 | 20° C | 38% | - | 0 mm | 4.02 m/s, 148° | - | - |
| 1777235100 | 20° C | 37% | - | 0 mm | 4.47 m/s, 176° | - | - |
| 1777234618 | 20° C | 39% | - | 0 mm | 4.47 m/s, 145° | - | - |
| 1777234140 | 20° C | 40% | - | 0 mm | 2.24 m/s, 122° | - | - |
| 1777233661 | 20° C | 39% | - | 0 mm | 4.47 m/s, 200° | - | - |
* Rain latest hour (hover to see other rain measurements)
** Current wind speed in m/s (hover to see current wind gust speed)